Time,TemperatureF,DewpointF,PressureIn,WindDirection,WindDirectionDegrees,WindSpeedMPH,WindSpeedGustMPH,Humidity,HourlyPrecipIn,Conditions,Clouds,dailyrainin,SoftwareType,DateUTC
2013-01-03 00:02:00,22.3,16.5,30.21,NW,307,0.0,0.0,78,0.00,,CLR,0.00,VWS V14.01,2013-01-03 05:02:00,
2013-01-03 00:03:00,22.3,16.5,30.21,NW,307,0.0,0.0,78,0.00,,CLR,0.00,VWS V14.01,2013-01-03 05:03:00,
2013-01-03 00:04:00,22.3,16.5,30.21,NW,307,0.0,0.0,78,0.00,,CLR,0.00,VWS V14.01,2013-01-03 05:04:00,
2013-01-03 00:09:00,22.4,16.6,30.21,WNW,291,0.0,1.0,78,0.00,,CLR,0.00,VWS V14.01,2013-01-03 05:09:00,
2013-01-03 00:14:00,22.2,17.0,30.21,SE,124,0.0,1.0,80,0.00,,CLR,0.00,VWS V14.01,2013-01-03 05:14:00,
2013-01-03 00:19:00,21.7,17.1,30.21,SSE,166,0.0,0.0,82,0.00,,CLR,0.00,VWS V14.01,2013-01-03 05:19:00,
2013-01-03 00:24:00,21.6,16.7,30.21,SSE,166,0.0,0.0,81,0.00,,CLR,0.00,VWS V14.01,2013-01-03 05:24:00,
2013-01-03 00:29:00,21.6,16.4,30.20,SSE,166,0.0,0.0,80,0.00,,CLR,0.00,VWS V14.01,2013-01-03 05:29:00,
2013-01-03 00:34:00,21.5,16.3,30.20,SSE,166,0.0,0.0,80,0.00,,CLR,0.00,VWS V14.01,2013-01-03 05:34:00,
2013-01-03 00:39:00,21.3,16.1,30.20,SSE,163,0.0,0.0,80,0.00,,CLR,0.00,VWS V14.01,2013-01-03 05:39:00,
2013-01-03 00:44:00,21.5,16.3,30.21,SE,145,0.0,0.0,80,0.00,,CLR,0.00,VWS V14.01,2013-01-03 05:44:00,
2013-01-03 00:49:00,21.6,16.4,30.21,SE,145,0.0,0.0,80,0.00,,CLR,0.00,VWS V14.01,2013-01-03 05:49:00,
2013-01-03 00:54:00,21.7,16.8,30.21,SE,145,0.0,0.0,81,0.00,,CLR,0.00,VWS V14.01,2013-01-03 05:54:00,
2013-01-03 00:59:00,21.8,16.6,30.21,South,177,0.0,0.0,80,0.00,,CLR,0.00,VWS V14.01,2013-01-03 05:59:00,
2013-01-03 01:04:00,21.7,16.5,30.21,WNW,297,0.0,0.0,80,0.00,,CLR,0.00,VWS V14.01,2013-01-03 06:04:00,
2013-01-03 01:09:00,22.0,16.8,30.20,WNW,302,0.0,1.0,80,0.00,,CLR,0.00,VWS V14.01,2013-01-03 06:09:00,
2013-01-03 01:14:00,22.3,16.8,30.20,West,281,0.0,1.0,79,0.00,,CLR,0.00,VWS V14.01,2013-01-03 06:14:00,
2013-01-03 01:19:00,22.4,16.6,30.20,WNW,295,0.0,3.0,78,0.00,,CLR,0.00,VWS V14.01,2013-01-03 06:19:00,
2013-01-03 01:24:00,22.7,16.6,30.20,WNW,288,0.0,2.0,77,0.00,,CLR,0.00,VWS V14.01,2013-01-03 06:24:00,
2013-01-03 01:29:00,22.8,16.4,30.19,WNW,285,0.0,4.0,76,0.00,,CLR,0.00,VWS V14.01,2013-01-03 06:29:00,
2013-01-03 01:35:00,22.9,16.5,30.20,West,280,0.0,2.0,76,0.00,,CLR,0.00,VWS V14.01,2013-01-03 06:35:00,
2013-01-03 01:40:00,23.0,16.6,30.20,WNW,301,0.0,4.0,76,0.00,,CLR,0.00,VWS V14.01,2013-01-03 06:40:00,
2013-01-03 01:45:00,23.0,16.6,30.20,West,278,0.0,2.0,76,0.00,,CLR,0.00,VWS V14.01,2013-01-03 06:45:00,
2013-01-03 01:50:00,23.1,16.7,30.20,WNW,303,0.0,1.0,76,0.00,,CLR,0.00,VWS V14.01,2013-01-03 06:50:00,
2013-01-03 01:55:00,23.1,16.7,30.20,West,273,0.0,1.0,76,0.00,,CLR,0.00,VWS V14.01,2013-01-03 06:55:00,
2013-01-03 02:00:00,23.0,16.6,30.20,WNW,283,0.0,1.0,76,0.00,,CLR,0.00,VWS V14.01,2013-01-03 07:00:00,
2013-01-03 02:05:00,22.8,16.7,30.20,WNW,284,0.0,0.0,77,0.00,,CLR,0.00,VWS V14.01,2013-01-03 07:05:00,
2013-01-03 02:10:00,22.8,16.7,30.20,West,278,0.0,1.0,77,0.00,,CLR,0.00,VWS V14.01,2013-01-03 07:10:00,
2013-01-03 02:15:00,22.8,16.4,30.21,WNW,294,0.0,1.0,76,0.00,,CLR,0.00,VWS V14.01,2013-01-03 07:15:00,
2013-01-03 02:20:00,22.7,16.6,30.21,WNW,285,0.0,1.0,77,0.00,,CLR,0.00,VWS V14.01,2013-01-03 07:20:00,
2013-01-03 02:25:00,22.6,16.5,30.21,WNW,297,0.0,1.0,77,0.00,,CLR,0.00,VWS V14.01,2013-01-03 07:25:00,
2013-01-03 02:30:00,22.4,16.3,30.21,WNW,297,0.0,0.0,77,0.00,,CLR,0.00,VWS V14.01,2013-01-03 07:30:00,
2013-01-03 02:35:00,22.1,16.0,30.21,WNW,298,0.0,0.0,77,0.00,,CLR,0.00,VWS V14.01,2013-01-03 07:35:00,
2013-01-03 02:40:00,22.0,16.2,30.21,WNW,297,0.0,0.0,78,0.00,,CLR,0.00,VWS V14.01,2013-01-03 07:40:00,
2013-01-03 02:45:00,22.0,15.9,30.21,WNW,297,0.0,0.0,77,0.00,,CLR,0.00,VWS V14.01,2013-01-03 07:45:00,
2013-01-03 02:50:00,22.0,15.9,30.21,WNW,283,0.0,0.0,77,0.00,,CLR,0.00,VWS V14.01,2013-01-03 07:50:00,
2013-01-03 02:55:00,22.0,16.2,30.20,WNW,283,0.0,0.0,78,0.00,,CLR,0.00,VWS V14.01,2013-01-03 07:55:00,
2013-01-03 03:00:00,21.7,16.2,30.20,WNW,284,0.0,0.0,79,0.00,,CLR,0.00,VWS V14.01,2013-01-03 08:00:00,
2013-01-03 03:05:00,21.4,15.9,30.21,WNW,283,0.0,0.0,79,0.00,,CLR,0.00,VWS V14.01,2013-01-03 08:05:00,
2013-01-03 03:10:00,21.2,16.0,30.21,WNW,284,0.0,0.0,80,0.00,,CLR,0.00,VWS V14.01,2013-01-03 08:10:00,
2013-01-03 03:15:00,20.8,15.6,30.21,WNW,284,0.0,0.0,80,0.00,,CLR,0.00,VWS V14.01,2013-01-03 08:15:00,
2013-01-03 03:20:00,21.0,15.8,30.21,WNW,284,0.0,0.0,80,0.00,,CLR,0.00,VWS V14.01,2013-01-03 08:20:00,
2013-01-03 03:25:00,20.9,15.7,30.21,WNW,283,0.0,0.0,80,0.00,,CLR,0.00,VWS V14.01,2013-01-03 08:25:00,
2013-01-03 03:31:00,20.8,15.6,30.21,WNW,284,0.0,0.0,80,0.00,,CLR,0.00,VWS V14.01,2013-01-03 08:31:00,
2013-01-03 03:36:00,21.0,15.8,30.21,WNW,288,0.0,0.0,80,0.00,,CLR,0.00,VWS V14.01,2013-01-03 08:36:00,
2013-01-03 03:41:00,21.1,15.6,30.20,North,355,1.0,1.0,79,0.00,,CLR,0.00,VWS V14.01,2013-01-03 08:41:00,
2013-01-03 03:46:00,21.3,15.8,30.20,WNW,300,1.0,1.0,79,0.00,,CLR,0.00,VWS V14.01,2013-01-03 08:46:00,
2013-01-03 03:51:00,21.4,15.6,30.20,WNW,283,2.0,3.0,78,0.00,,CLR,0.00,VWS V14.01,2013-01-03 08:51:00,
2013-01-03 03:56:00,21.6,15.8,30.20,WNW,283,0.0,2.0,78,0.00,,CLR,0.00,VWS V14.01,2013-01-03 08:56:00,
2013-01-03 04:01:00,21.6,15.5,30.20,WNW,284,0.0,0.0,77,0.00,,CLR,0.00,VWS V14.01,2013-01-03 09:01:00,
2013-01-03 04:06:00,21.4,15.6,30.20,West,278,0.0,0.0,78,0.00,,CLR,0.00,VWS V14.01,2013-01-03 09:06:00,
2013-01-03 04:11:00,21.2,15.7,30.20,West,263,0.0,1.0,79,0.00,,CLR,0.00,VWS V14.01,2013-01-03 09:11:00,
2013-01-03 04:16:00,21.0,15.5,30.20,West,263,0.0,0.0,79,0.00,,CLR,0.00,VWS V14.01,2013-01-03 09:16:00,
2013-01-03 04:21:00,20.8,15.3,30.19,WSW,251,0.0,0.0,79,0.00,,CLR,0.00,VWS V14.01,2013-01-03 09:21:00,
2013-01-03 04:26:00,20.6,15.4,30.20,West,278,0.0,1.0,80,0.00,,CLR,0.00,VWS V14.01,2013-01-03 09:26:00,
2013-01-03 04:31:00,20.7,15.5,30.19,West,261,0.0,0.0,80,0.00,,CLR,0.00,VWS V14.01,2013-01-03 09:31:00,
2013-01-03 04:36:00,20.8,15.3,30.19,West,260,0.0,0.0,79,0.00,,CLR,0.00,VWS V14.01,2013-01-03 09:36:00,
2013-01-03 04:41:00,20.8,15.3,30.19,WSW,252,0.0,0.0,79,0.00,,CLR,0.00,VWS V14.01,2013-01-03 09:41:00,
2013-01-03 04:47:00,20.7,15.2,30.19,WNW,300,0.0,0.0,79,0.00,,CLR,0.00,VWS V14.01,2013-01-03 09:47:00,
2013-01-03 04:52:00,20.8,15.3,30.19,West,261,0.0,1.0,79,0.00,,CLR,0.00,VWS V14.01,2013-01-03 09:52:00,
2013-01-03 04:57:00,21.0,15.5,30.19,WNW,287,0.0,0.0,79,0.00,,CLR,0.00,VWS V14.01,2013-01-03 09:57:00,
2013-01-03 05:02:00,21.1,15.6,30.19,NW,307,0.0,0.0,79,0.00,,CLR,0.00,VWS V14.01,2013-01-03 10:02:00,
2013-01-03 05:07:00,21.2,15.4,30.19,West,281,0.0,0.0,78,0.00,,CLR,0.00,VWS V14.01,2013-01-03 10:07:00,
2013-01-03 05:12:00,21.2,15.7,30.19,WNW,290,0.0,1.0,79,0.00,,CLR,0.00,VWS V14.01,2013-01-03 10:12:00,
2013-01-03 05:17:00,21.1,15.6,30.19,WNW,290,0.0,0.0,79,0.00,,CLR,0.00,VWS V14.01,2013-01-03 10:17:00,
2013-01-03 05:22:00,21.1,15.6,30.19,West,276,0.0,0.0,79,0.00,,CLR,0.00,VWS V14.01,2013-01-03 10:22:00,
2013-01-03 05:27:00,21.0,15.5,30.19,NW,305,0.0,1.0,79,0.00,,CLR,0.00,VWS V14.01,2013-01-03 10:27:00,
2013-01-03 05:32:00,20.9,15.4,30.19,WNW,287,0.0,0.0,79,0.00,,CLR,0.00,VWS V14.01,2013-01-03 10:32:00,
2013-01-03 05:37:00,20.9,15.4,30.19,WNW,291,0.0,0.0,79,0.00,,CLR,0.00,VWS V14.01,2013-01-03 10:37:00,
2013-01-03 05:42:00,20.9,15.4,30.20,West,281,0.0,1.0,79,0.00,,CLR,0.00,VWS V14.01,2013-01-03 10:42:00,
2013-01-03 05:47:00,20.9,15.4,30.20,WNW,293,0.0,1.0,79,0.00,,CLR,0.00,VWS V14.01,2013-01-03 10:47:00,
2013-01-03 05:52:00,20.8,15.3,30.20,WNW,302,0.0,1.0,79,0.00,,CLR,0.00,VWS V14.01,2013-01-03 10:52:00,
2013-01-03 05:57:00,20.8,15.3,30.20,NW,308,0.0,1.0,79,0.00,,CLR,0.00,VWS V14.01,2013-01-03 10:57:00,
2013-01-03 06:02:00,20.6,15.1,30.20,WNW,297,0.0,1.0,79,0.00,,CLR,0.00,VWS V14.01,2013-01-03 11:02:00,
2013-01-03 06:07:00,20.6,15.1,30.20,WNW,290,0.0,5.0,79,0.00,,CLR,0.00,VWS V14.01,2013-01-03 11:07:00,
2013-01-03 06:12:00,20.6,15.1,30.20,NW,308,0.0,5.0,79,0.00,,CLR,0.00,VWS V14.01,2013-01-03 11:12:00,
2013-01-03 06:18:00,20.6,15.1,30.20,NW,307,0.0,3.0,79,0.00,,CLR,0.00,VWS V14.01,2013-01-03 11:18:00,
2013-01-03 06:23:00,20.6,15.1,30.20,WNW,302,0.0,0.0,79,0.00,,CLR,0.00,VWS V14.01,2013-01-03 11:23:00,
2013-01-03 06:28:00,20.4,14.9,30.20,WNW,303,0.0,1.0,79,0.00,,CLR,0.00,VWS V14.01,2013-01-03 11:28:00,
2013-01-03 06:33:00,20.3,15.1,30.20,West,274,0.0,4.0,80,0.00,,CLR,0.00,VWS V14.01,2013-01-03 11:33:00,
2013-01-03 06:38:00,20.2,15.0,30.20,WNW,298,0.0,2.0,80,0.00,,CLR,0.00,VWS V14.01,2013-01-03 11:38:00,
2013-01-03 06:43:00,19.9,14.7,30.20,WNW,294,0.0,1.0,80,0.00,,CLR,0.00,VWS V14.01,2013-01-03 11:43:00,
2013-01-03 06:48:00,19.9,14.7,30.20,WNW,297,0.0,1.0,80,0.00,,CLR,0.00,VWS V14.01,2013-01-03 11:48:00,
2013-01-03 06:53:00,19.8,14.6,30.20,NW,311,0.0,0.0,80,0.00,,CLR,0.00,VWS V14.01,2013-01-03 11:53:00,
2013-01-03 06:58:00,19.7,14.5,30.20,NW,309,0.0,0.0,80,0.00,,CLR,0.00,VWS V14.01,2013-01-03 11:58:00,
2013-01-03 07:03:00,19.4,14.2,30.20,NW,309,0.0,0.0,80,0.00,,CLR,0.00,VWS V14.01,2013-01-03 12:03:00,
2013-01-03 07:08:00,19.3,14.4,30.20,WNW,294,0.0,0.0,81,0.00,,CLR,0.00,VWS V14.01,2013-01-03 12:08:00,
2013-01-03 07:13:00,19.3,14.4,30.20,WNW,295,0.0,0.0,81,0.00,,CLR,0.00,VWS V14.01,2013-01-03 12:13:00,
2013-01-03 07:18:00,19.1,14.2,30.20,WNW,295,0.0,0.0,81,0.00,,CLR,0.00,VWS V14.01,2013-01-03 12:18:00,
2013-01-03 07:23:00,18.9,14.3,30.20,WNW,294,0.0,0.0,82,0.00,,CLR,0.00,VWS V14.01,2013-01-03 12:23:00,
2013-01-03 07:28:00,18.6,14.0,30.20,WNW,294,0.0,0.0,82,0.00,,CLR,0.00,VWS V14.01,2013-01-03 12:28:00,
2013-01-03 07:33:00,18.5,14.2,30.20,SW,225,0.0,0.0,83,0.00,,CLR,0.00,VWS V14.01,2013-01-03 12:33:00,
2013-01-03 07:38:00,18.1,13.8,30.20,SW,226,0.0,0.0,83,0.00,,CLR,0.00,VWS V14.01,2013-01-03 12:38:00,
2013-01-03 07:43:00,17.7,13.7,30.20,SW,225,0.0,0.0,84,0.00,,CLR,0.00,VWS V14.01,2013-01-03 12:43:00,
2013-01-03 07:48:00,17.5,13.8,30.20,SW,225,0.0,0.0,85,0.00,,CLR,0.00,VWS V14.01,2013-01-03 12:48:00,
2013-01-03 07:53:00,17.6,13.9,30.20,SW,224,0.0,0.0,85,0.00,,CLR,0.00,VWS V14.01,2013-01-03 12:53:00,
2013-01-03 07:58:00,18.2,14.5,30.20,SW,224,0.0,0.0,85,0.00,,CLR,0.00,VWS V14.01,2013-01-03 12:58:00,
2013-01-03 08:03:00,19.0,15.0,30.20,SW,224,0.0,0.0,84,0.00,,CLR,0.00,VWS V14.01,2013-01-03 13:03:00,
2013-01-03 08:08:00,20.1,15.8,30.20,SSW,197,0.0,0.0,83,0.00,,CLR,0.00,VWS V14.01,2013-01-03 13:08:00,
2013-01-03 08:13:00,20.9,16.3,30.20,SE,139,0.0,0.0,82,0.00,,CLR,0.00,VWS V14.01,2013-01-03 13:13:00,
2013-01-03 08:18:00,21.3,16.4,30.20,SSW,207,0.0,0.0,81,0.00,,CLR,0.00,VWS V14.01,2013-01-03 13:18:00,
2013-01-03 08:23:00,22.1,17.5,30.21,SSW,193,0.0,0.0,82,0.00,,CLR,0.00,VWS V14.01,2013-01-03 13:23:00,
2013-01-03 08:28:00,22.3,16.8,30.21,SW,224,0.0,0.0,79,0.00,,CLR,0.00,VWS V14.01,2013-01-03 13:28:00,
2013-01-03 08:34:00,22.3,16.2,30.21,SW,236,0.0,0.0,77,0.00,,CLR,0.00,VWS V14.01,2013-01-03 13:34:00,
2013-01-03 08:39:00,22.0,16.2,30.21,West,273,0.0,0.0,78,0.00,,CLR,0.00,VWS V14.01,2013-01-03 13:39:00,
2013-01-03 08:44:00,21.9,16.1,30.21,WNW,285,0.0,1.0,78,0.00,,CLR,0.00,VWS V14.01,2013-01-03 13:44:00,
2013-01-03 08:49:00,22.0,16.2,30.22,WNW,301,0.0,1.0,78,0.00,,CLR,0.00,VWS V14.01,2013-01-03 13:49:00,
2013-01-03 08:54:00,22.3,16.8,30.22,WNW,290,0.0,1.0,79,0.00,,CLR,0.00,VWS V14.01,2013-01-03 13:54:00,
2013-01-03 08:59:00,22.5,16.4,30.22,WNW,288,0.0,1.0,77,0.00,,CLR,0.00,VWS V14.01,2013-01-03 13:59:00,
2013-01-03 09:04:00,22.8,16.4,30.22,WNW,294,0.0,2.0,76,0.00,,CLR,0.00,VWS V14.01,2013-01-03 14:04:00,
2013-01-03 09:09:00,23.3,16.9,30.22,WNW,294,0.0,1.0,76,0.00,,CLR,0.00,VWS V14.01,2013-01-03 14:09:00,
2013-01-03 09:14:00,23.5,16.8,30.22,NW,307,0.0,3.0,75,0.00,,CLR,0.00,VWS V14.01,2013-01-03 14:14:00,
2013-01-03 09:19:00,23.7,17.0,30.22,WNW,301,1.0,4.0,75,0.00,,CLR,0.00,VWS V14.01,2013-01-03 14:19:00,
2013-01-03 09:24:00,23.7,16.6,30.22,West,277,1.0,4.0,74,0.00,,CLR,0.00,VWS V14.01,2013-01-03 14:24:00,
2013-01-03 09:29:00,23.9,16.5,30.22,WNW,294,0.0,6.0,73,0.00,,CLR,0.00,VWS V14.01,2013-01-03 14:29:00,
2013-01-03 09:34:00,24.0,16.6,30.22,West,278,0.0,5.0,73,0.00,,CLR,0.00,VWS V14.01,2013-01-03 14:34:00,
2013-01-03 09:39:00,23.9,16.2,30.22,WNW,286,1.0,7.0,72,0.00,,CLR,0.00,VWS V14.01,2013-01-03 14:39:00,
2013-01-03 09:44:00,24.0,16.3,30.23,WNW,287,0.0,6.0,72,0.00,,CLR,0.00,VWS V14.01,2013-01-03 14:44:00,
2013-01-03 09:49:00,24.2,16.5,30.23,West,280,1.0,6.0,72,0.00,,CLR,0.00,VWS V14.01,2013-01-03 14:49:00,
2013-01-03 09:54:00,23.9,15.9,30.22,West,278,3.0,6.0,71,0.00,,CLR,0.00,VWS V14.01,2013-01-03 14:54:00,
2013-01-03 09:59:00,24.0,16.6,30.22,West,271,1.0,5.0,73,0.00,,CLR,0.00,VWS V14.01,2013-01-03 14:59:00,
2013-01-03 10:05:00,24.1,16.4,30.22,West,259,0.0,7.0,72,0.00,,CLR,0.00,VWS V14.01,2013-01-03 15:05:00,
2013-01-03 10:10:00,24.5,16.8,30.22,WNW,287,3.0,6.0,72,0.00,,CLR,0.00,VWS V14.01,2013-01-03 15:10:00,
2013-01-03 10:14:00,24.7,16.6,30.22,West,261,2.0,5.0,71,0.00,,CLR,0.00,VWS V14.01,2013-01-03 15:14:00,
2013-01-03 10:20:00,24.7,16.3,30.22,WNW,285,6.0,9.0,70,0.00,,CLR,0.00,VWS V14.01,2013-01-03 15:20:00,
2013-01-03 10:25:00,24.5,16.1,30.22,West,259,0.0,7.0,70,0.00,,CLR,0.00,VWS V14.01,2013-01-03 15:25:00,
2013-01-03 10:30:00,24.6,16.5,30.21,West,268,1.0,6.0,71,0.00,,CLR,0.00,VWS V14.01,2013-01-03 15:30:00,
2013-01-03 10:35:00,24.7,16.6,30.21,WNW,284,0.0,4.0,71,0.00,,CLR,0.00,VWS V14.01,2013-01-03 15:35:00,
2013-01-03 10:40:00,24.8,16.8,30.21,NW,310,2.0,5.0,71,0.00,,CLR,0.00,VWS V14.01,2013-01-03 15:40:00,
2013-01-03 10:45:00,24.8,16.8,30.21,WNW,291,3.0,5.0,71,0.00,,CLR,0.00,VWS V14.01,2013-01-03 15:45:00,
2013-01-03 10:50:00,24.7,16.6,30.21,WNW,282,3.0,3.0,71,0.00,,CLR,0.00,VWS V14.01,2013-01-03 15:50:00,
2013-01-03 10:55:00,25.0,16.9,30.21,NW,326,1.0,6.0,71,0.00,,CLR,0.00,VWS V14.01,2013-01-03 15:55:00,
2013-01-03 11:00:00,25.2,16.8,30.21,WNW,293,2.0,3.0,70,0.00,,CLR,0.00,VWS V14.01,2013-01-03 16:00:00,
2013-01-03 11:05:00,25.3,16.6,30.20,WNW,290,3.0,3.0,69,0.00,,CLR,0.00,VWS V14.01,2013-01-03 16:05:00,
2013-01-03 11:10:00,25.4,16.3,30.20,West,273,1.0,1.0,68,0.00,,CLR,0.00,VWS V14.01,2013-01-03 16:10:00,
2013-01-03 11:15:00,25.5,16.4,30.20,WNW,293,3.0,3.0,68,0.00,,CLR,0.00,VWS V14.01,2013-01-03 16:15:00,
2013-01-03 11:20:00,25.8,17.4,30.19,West,259,0.0,1.0,70,0.00,,CLR,0.00,VWS V14.01,2013-01-03 16:20:00,
2013-01-03 11:25:00,26.0,17.2,30.19,WNW,301,4.0,5.0,69,0.00,,CLR,0.00,VWS V14.01,2013-01-03 16:25:00,
2013-01-03 11:30:00,26.4,17.3,30.19,WNW,283,3.0,6.0,68,0.00,,CLR,0.00,VWS V14.01,2013-01-03 16:30:00,
2013-01-03 11:35:00,26.5,17.0,30.18,West,275,1.0,1.0,67,0.00,,CLR,0.00,VWS V14.01,2013-01-03 16:35:00,
2013-01-03 11:40:00,26.8,17.3,30.18,WNW,286,2.0,4.0,67,0.00,,CLR,0.00,VWS V14.01,2013-01-03 16:40:00,
2013-01-03 11:45:00,27.1,17.6,30.18,West,281,2.0,3.0,67,0.00,,CLR,0.00,VWS V14.01,2013-01-03 16:45:00,
2013-01-03 11:50:00,27.3,17.5,30.18,West,270,4.0,7.0,66,0.00,,CLR,0.00,VWS V14.01,2013-01-03 16:50:00,
2013-01-03 11:55:00,27.1,16.9,30.18,West,280,2.0,6.0,65,0.00,,CLR,0.00,VWS V14.01,2013-01-03 16:55:00,
2013-01-03 12:00:00,27.3,17.8,30.17,West,276,4.0,4.0,67,0.00,,CLR,0.00,VWS V14.01,2013-01-03 17:00:00,
2013-01-03 12:05:00,27.6,17.7,30.17,WNW,288,2.0,5.0,66,0.00,,CLR,0.00,VWS V14.01,2013-01-03 17:05:00,
2013-01-03 12:10:00,27.8,17.9,30.17,WNW,293,4.0,6.0,66,0.00,,CLR,0.00,VWS V14.01,2013-01-03 17:10:00,
2013-01-03 12:15:00,27.8,17.9,30.17,WNW,300,6.0,9.0,66,0.00,,CLR,0.00,VWS V14.01,2013-01-03 17:15:00,
2013-01-03 12:20:00,28.0,17.4,30.16,SW,228,4.0,6.0,64,0.00,,CLR,0.00,VWS V14.01,2013-01-03 17:20:00,
2013-01-03 12:25:00,28.1,17.9,30.16,WSW,249,9.0,10.0,65,0.00,,CLR,0.00,VWS V14.01,2013-01-03 17:25:00,
2013-01-03 12:30:00,28.1,17.1,30.15,WNW,291,2.0,5.0,63,0.00,,CLR,0.00,VWS V14.01,2013-01-03 17:30:00,
2013-01-03 12:35:00,28.6,18.0,30.15,WNW,286,6.0,8.0,64,0.00,,CLR,0.00,VWS V14.01,2013-01-03 17:35:00,
2013-01-03 12:40:00,28.7,18.1,30.15,West,266,6.0,8.0,64,0.00,,CLR,0.00,VWS V14.01,2013-01-03 17:40:00,
2013-01-03 12:45:00,29.0,19.1,30.15,West,276,3.0,6.0,66,0.00,,CLR,0.00,VWS V14.01,2013-01-03 17:45:00,
2013-01-03 12:50:00,29.2,18.5,30.14,West,277,3.0,5.0,64,0.00,,CLR,0.00,VWS V14.01,2013-01-03 17:50:00,
2013-01-03 12:55:00,29.1,18.1,30.14,WSW,255,6.0,7.0,63,0.00,,CLR,0.00,VWS V14.01,2013-01-03 17:55:00,
2013-01-03 13:00:00,29.1,18.1,30.14,West,266,5.0,9.0,63,0.00,,CLR,0.00,VWS V14.01,2013-01-03 18:00:00,
2013-01-03 13:06:00,29.1,18.5,30.13,West,278,3.0,6.0,64,0.00,,CLR,0.00,VWS V14.01,2013-01-03 18:06:00,
2013-01-03 13:11:00,29.2,18.2,30.13,WNW,289,8.0,8.0,63,0.00,,CLR,0.00,VWS V14.01,2013-01-03 18:11:00,
2013-01-03 13:16:00,29.4,18.4,30.13,WNW,289,5.0,7.0,63,0.00,,CLR,0.00,VWS V14.01,2013-01-03 18:16:00,
2013-01-03 13:21:00,29.6,18.2,30.12,NW,323,5.0,7.0,62,0.00,,CLR,0.00,VWS V14.01,2013-01-03 18:21:00,
2013-01-03 13:26:00,29.8,18.8,30.13,West,266,5.0,6.0,63,0.00,,CLR,0.00,VWS V14.01,2013-01-03 18:26:00,
2013-01-03 13:31:00,29.7,18.7,30.13,WSW,238,5.0,6.0,63,0.00,,CLR,0.00,VWS V14.01,2013-01-03 18:31:00,
2013-01-03 13:36:00,29.8,18.4,30.13,NW,314,3.0,7.0,62,0.00,,CLR,0.00,VWS V14.01,2013-01-03 18:36:00,
2013-01-03 13:41:00,30.1,18.3,30.12,West,278,5.0,9.0,61,0.00,,CLR,0.00,VWS V14.01,2013-01-03 18:41:00,
2013-01-03 13:46:00,30.3,18.9,30.12,WNW,286,3.0,6.0,62,0.00,,CLR,0.00,VWS V14.01,2013-01-03 18:46:00,
2013-01-03 13:51:00,30.4,19.0,30.12,West,270,1.0,7.0,62,0.00,,CLR,0.00,VWS V14.01,2013-01-03 18:51:00,
2013-01-03 13:56:00,30.8,19.3,30.12,WNW,297,3.0,5.0,62,0.00,,CLR,0.00,VWS V14.01,2013-01-03 18:56:00,
2013-01-03 14:01:00,30.8,19.3,30.12,SW,233,3.0,6.0,62,0.00,,CLR,0.00,VWS V14.01,2013-01-03 19:01:00,
2013-01-03 14:06:00,30.6,18.4,30.11,West,276,1.0,6.0,60,0.00,,CLR,0.00,VWS V14.01,2013-01-03 19:06:00,
2013-01-03 14:11:00,30.5,18.7,30.11,West,268,5.0,10.0,61,0.00,,CLR,0.00,VWS V14.01,2013-01-03 19:11:00,
2013-01-03 14:16:00,30.8,19.7,30.11,West,274,4.0,6.0,63,0.00,,CLR,0.00,VWS V14.01,2013-01-03 19:16:00,
2013-01-03 14:55:00,31.9,20.4,30.11,WSW,255,3.0,8.0,62,0.00,,CLR,0.00,VWS V14.01,2013-01-03 19:55:00,
2013-01-03 15:00:00,31.8,19.9,30.11,West,271,3.0,6.0,61,0.00,,CLR,0.00,VWS V14.01,2013-01-03 20:00:00,
2013-01-03 15:05:00,31.8,19.9,30.11,WNW,283,1.0,7.0,61,0.00,,CLR,0.00,VWS V14.01,2013-01-03 20:05:00,
2013-01-03 15:10:00,31.9,20.0,30.11,West,281,4.0,8.0,61,0.00,,CLR,0.00,VWS V14.01,2013-01-03 20:10:00,
2013-01-03 15:15:00,31.8,20.3,30.11,WNW,286,2.0,7.0,62,0.00,,CLR,0.00,VWS V14.01,2013-01-03 20:15:00,
2013-01-03 15:20:00,31.7,19.8,30.11,West,259,1.0,7.0,61,0.00,,CLR,0.00,VWS V14.01,2013-01-03 20:20:00,
2013-01-03 15:25:00,31.8,20.3,30.11,WNW,287,3.0,7.0,62,0.00,,CLR,0.00,VWS V14.01,2013-01-03 20:25:00,
2013-01-03 15:30:00,32.0,20.5,30.11,WNW,288,2.0,6.0,62,0.00,,CLR,0.00,VWS V14.01,2013-01-03 20:30:00,
2013-01-03 15:35:00,32.0,20.5,30.11,WNW,288,1.0,1.0,62,0.00,,CLR,0.00,VWS V14.01,2013-01-03 20:35:00,
2013-01-03 15:40:00,32.2,21.0,30.12,WNW,285,3.0,4.0,63,0.00,,CLR,0.00,VWS V14.01,2013-01-03 20:40:00,
2013-01-03 15:45:00,32.0,20.1,30.11,West,280,2.0,6.0,61,0.00,,CLR,0.00,VWS V14.01,2013-01-03 20:45:00,
2013-01-03 15:50:00,32.0,20.5,30.12,WNW,298,1.0,6.0,62,0.00,,CLR,0.00,VWS V14.01,2013-01-03 20:50:00,
2013-01-03 15:55:00,31.8,20.3,30.12,NW,308,3.0,6.0,62,0.00,,CLR,0.00,VWS V14.01,2013-01-03 20:55:00,
2013-01-03 16:00:00,31.8,20.7,30.11,WNW,285,0.0,6.0,63,0.00,,CLR,0.00,VWS V14.01,2013-01-03 21:00:00,
2013-01-03 16:05:00,31.7,20.6,30.12,West,269,4.0,4.0,63,0.00,,CLR,0.00,VWS V14.01,2013-01-03 21:05:00,
2013-01-03 16:10:00,31.6,20.5,30.12,West,267,2.0,3.0,63,0.00,,CLR,0.00,VWS V14.01,2013-01-03 21:10:00,
2013-01-03 16:15:00,31.5,20.4,30.12,West,281,1.0,1.0,63,0.00,,CLR,0.00,VWS V14.01,2013-01-03 21:15:00,
2013-01-03 16:20:00,31.5,20.4,30.12,West,278,1.0,1.0,63,0.00,,CLR,0.00,VWS V14.01,2013-01-03 21:20:00,
2013-01-03 16:25:00,31.3,20.2,30.11,West,274,1.0,1.0,63,0.00,,CLR,0.00,VWS V14.01,2013-01-03 21:25:00,
2013-01-03 16:30:00,31.2,20.1,30.11,WSW,253,0.0,0.0,63,0.00,,CLR,0.00,VWS V14.01,2013-01-03 21:30:00,
2013-01-03 16:35:00,31.1,20.4,30.11,WSW,255,0.0,0.0,64,0.00,,CLR,0.00,VWS V14.01,2013-01-03 21:35:00,
2013-01-03 16:40:00,30.8,20.1,30.11,WSW,245,0.0,1.0,64,0.00,,CLR,0.00,VWS V14.01,2013-01-03 21:40:00,
2013-01-03 16:45:00,30.4,19.7,30.12,WSW,255,0.0,1.0,64,0.00,,CLR,0.00,VWS V14.01,2013-01-03 21:45:00,
2013-01-03 16:50:00,30.0,19.7,30.12,West,278,0.0,0.0,65,0.00,,CLR,0.00,VWS V14.01,2013-01-03 21:50:00,
2013-01-03 16:55:00,29.7,19.8,30.11,WSW,249,2.0,2.0,66,0.00,,CLR,0.00,VWS V14.01,2013-01-03 21:55:00,
2013-01-03 17:00:00,29.5,19.6,30.12,SW,235,0.0,0.0,66,0.00,,CLR,0.00,VWS V14.01,2013-01-03 22:00:00,
2013-01-03 17:05:00,29.4,19.5,30.12,SW,225,0.0,0.0,66,0.00,,CLR,0.00,VWS V14.01,2013-01-03 22:05:00,
2013-01-03 17:10:00,29.3,19.7,30.12,SSW,200,0.0,2.0,67,0.00,,CLR,0.00,VWS V14.01,2013-01-03 22:10:00,
2013-01-03 17:15:00,29.2,19.6,30.11,SW,221,0.0,1.0,67,0.00,,CLR,0.00,VWS V14.01,2013-01-03 22:15:00,
2013-01-03 17:20:00,29.2,19.6,30.12,SW,228,1.0,1.0,67,0.00,,CLR,0.00,VWS V14.01,2013-01-03 22:20:00,
2013-01-03 17:25:00,29.2,20.0,30.12,SW,222,0.0,1.0,68,0.00,,CLR,0.00,VWS V14.01,2013-01-03 22:25:00,
2013-01-03 17:30:00,29.0,19.8,30.12,SW,217,1.0,2.0,68,0.00,,CLR,0.00,VWS V14.01,2013-01-03 22:30:00,
2013-01-03 17:35:00,29.0,20.1,30.12,SW,229,2.0,3.0,69,0.00,,CLR,0.00,VWS V14.01,2013-01-03 22:35:00,
2013-01-03 17:40:00,28.9,20.0,30.12,SW,233,5.0,6.0,69,0.00,,CLR,0.00,VWS V14.01,2013-01-03 22:40:00,
2013-01-03 17:45:00,28.9,20.4,30.12,SW,226,0.0,5.0,70,0.00,,CLR,0.00,VWS V14.01,2013-01-03 22:45:00,
2013-01-03 17:51:00,28.8,20.6,30.12,WSW,243,4.0,5.0,71,0.00,,CLR,0.00,VWS V14.01,2013-01-03 22:51:00,
2013-01-03 17:56:00,28.8,20.6,30.12,WSW,257,1.0,2.0,71,0.00,,CLR,0.00,VWS V14.01,2013-01-03 22:56:00,
2013-01-03 18:00:00,28.8,20.6,30.12,SW,225,3.0,4.0,71,0.00,,CLR,0.00,VWS V14.01,2013-01-03 23:00:00,
2013-01-03 18:05:00,28.9,20.4,30.12,WSW,243,1.0,1.0,70,0.00,,CLR,0.00,VWS V14.01,2013-01-03 23:05:00,
2013-01-03 18:11:00,28.8,20.6,30.12,WSW,245,2.0,2.0,71,0.00,,CLR,0.00,VWS V14.01,2013-01-03 23:11:00,
2013-01-03 18:16:00,28.7,20.5,30.12,WSW,250,0.0,3.0,71,0.00,,CLR,0.00,VWS V14.01,2013-01-03 23:16:00,
2013-01-03 18:21:00,28.6,20.4,30.12,West,276,0.0,2.0,71,0.00,,CLR,0.00,VWS V14.01,2013-01-03 23:21:00,
2013-01-03 18:26:00,28.7,20.5,30.12,WSW,238,1.0,3.0,71,0.00,,CLR,0.00,VWS V14.01,2013-01-03 23:26:00,
2013-01-03 18:31:00,28.7,20.5,30.12,WSW,238,1.0,1.0,71,0.00,,CLR,0.00,VWS V14.01,2013-01-03 23:31:00,
2013-01-03 18:36:00,28.5,20.3,30.12,SW,225,0.0,0.0,71,0.00,,CLR,0.00,VWS V14.01,2013-01-03 23:36:00,
2013-01-03 18:41:00,28.2,20.4,30.13,SW,233,1.0,2.0,72,0.00,,CLR,0.00,VWS V14.01,2013-01-03 23:41:00,
2013-01-03 18:46:00,28.4,20.2,30.13,West,267,0.0,1.0,71,0.00,,CLR,0.00,VWS V14.01,2013-01-03 23:46:00,
2013-01-03 18:51:00,28.5,20.3,30.13,WSW,255,0.0,0.0,71,0.00,,CLR,0.00,VWS V14.01,2013-01-03 23:51:00,
2013-01-03 18:56:00,28.5,20.3,30.13,West,267,0.0,1.0,71,0.00,,CLR,0.00,VWS V14.01,2013-01-03 23:56:00,
2013-01-03 19:01:00,28.5,20.3,30.13,West,264,0.0,0.0,71,0.00,,CLR,0.00,VWS V14.01,2013-01-04 00:01:00,
2013-01-03 19:06:00,28.5,20.3,30.13,WSW,248,0.0,0.0,71,0.00,,CLR,0.00,VWS V14.01,2013-01-04 00:06:00,
2013-01-03 19:11:00,28.5,20.3,30.13,WSW,238,0.0,1.0,71,0.00,,CLR,0.00,VWS V14.01,2013-01-04 00:11:00,
2013-01-03 19:16:00,28.6,20.4,30.13,WSW,242,0.0,3.0,71,0.00,,CLR,0.00,VWS V14.01,2013-01-04 00:16:00,
2013-01-03 19:21:00,28.6,20.4,30.13,SW,221,0.0,2.0,71,0.00,,CLR,0.00,VWS V14.01,2013-01-04 00:21:00,
2013-01-03 19:26:00,28.6,20.4,30.13,SW,235,3.0,4.0,71,0.00,,CLR,0.00,VWS V14.01,2013-01-04 00:26:00,
2013-01-03 19:31:00,28.8,20.6,30.12,WSW,248,1.0,5.0,71,0.00,,CLR,0.00,VWS V14.01,2013-01-04 00:31:00,
2013-01-03 19:36:00,28.9,20.4,30.12,SW,221,2.0,8.0,70,0.00,,CLR,0.00,VWS V14.01,2013-01-04 00:36:00,
2013-01-03 19:42:00,29.2,20.6,30.12,West,266,2.0,6.0,70,0.00,,CLR,0.00,VWS V14.01,2013-01-04 00:42:00,
2013-01-03 19:47:00,29.2,20.6,30.12,West,268,1.0,4.0,70,0.00,,CLR,0.00,VWS V14.01,2013-01-04 00:47:00,
2013-01-03 19:52:00,29.5,20.6,30.12,West,263,4.0,7.0,69,0.00,,CLR,0.00,VWS V14.01,2013-01-04 00:52:00,
2013-01-03 19:57:00,29.6,20.7,30.12,WNW,294,4.0,5.0,69,0.00,,CLR,0.00,VWS V14.01,2013-01-04 00:57:00,
2013-01-03 20:02:00,29.9,20.6,30.12,West,262,1.0,8.0,68,0.00,,CLR,0.00,VWS V14.01,2013-01-04 01:02:00,
2013-01-03 20:07:00,29.9,20.6,30.12,West,273,6.0,9.0,68,0.00,,CLR,0.00,VWS V14.01,2013-01-04 01:07:00,
2013-01-03 20:12:00,30.0,20.7,30.12,West,278,0.0,5.0,68,0.00,,CLR,0.00,VWS V14.01,2013-01-04 01:12:00,
2013-01-03 20:17:00,29.8,20.9,30.13,West,266,0.0,5.0,69,0.00,,CLR,0.00,VWS V14.01,2013-01-04 01:17:00,
2013-01-03 20:22:00,29.7,20.8,30.12,West,274,1.0,6.0,69,0.00,,CLR,0.00,VWS V14.01,2013-01-04 01:22:00,
2013-01-03 20:27:00,29.9,21.0,30.12,WNW,288,2.0,7.0,69,0.00,,CLR,0.00,VWS V14.01,2013-01-04 01:27:00,
2013-01-03 20:32:00,30.1,21.2,30.12,West,267,5.0,6.0,69,0.00,,CLR,0.00,VWS V14.01,2013-01-04 01:32:00,
2013-01-03 20:37:00,30.2,20.9,30.12,WNW,283,1.0,6.0,68,0.00,,CLR,0.00,VWS V14.01,2013-01-04 01:37:00,
2013-01-03 20:42:00,30.5,20.9,30.12,WSW,255,6.0,10.0,67,0.00,,CLR,0.00,VWS V14.01,2013-01-04 01:42:00,
2013-01-03 20:47:00,30.9,20.9,30.12,WSW,253,4.0,9.0,66,0.00,,CLR,0.00,VWS V14.01,2013-01-04 01:47:00,
2013-01-03 20:52:00,30.9,20.9,30.12,West,280,2.0,8.0,66,0.00,,CLR,0.00,VWS V14.01,2013-01-04 01:52:00,
2013-01-03 20:57:00,30.9,20.9,30.12,SW,214,2.0,7.0,66,0.00,,CLR,0.00,VWS V14.01,2013-01-04 01:57:00,
2013-01-03 21:02:00,31.0,21.0,30.12,West,276,4.0,8.0,66,0.00,,CLR,0.00,VWS V14.01,2013-01-04 02:02:00,
2013-01-03 21:07:00,31.0,21.0,30.12,WSW,243,3.0,7.0,66,0.00,,CLR,0.00,VWS V14.01,2013-01-04 02:07:00,
2013-01-03 21:12:00,31.0,21.0,30.12,WSW,252,4.0,6.0,66,0.00,,CLR,0.00,VWS V14.01,2013-01-04 02:12:00,
2013-01-03 21:17:00,31.0,21.0,30.12,WNW,285,1.0,6.0,66,0.00,,CLR,0.00,VWS V14.01,2013-01-04 02:17:00,
2013-01-03 21:22:00,31.0,21.3,30.12,West,269,2.0,4.0,67,0.00,,CLR,0.00,VWS V14.01,2013-01-04 02:22:00,
2013-01-03 21:27:00,31.0,21.0,30.12,SW,228,2.0,7.0,66,0.00,,CLR,0.00,VWS V14.01,2013-01-04 02:27:00,
2013-01-03 21:32:00,31.1,21.4,30.12,WSW,243,1.0,3.0,67,0.00,,CLR,0.00,VWS V14.01,2013-01-04 02:32:00,
2013-01-03 21:37:00,31.1,21.1,30.12,SW,235,2.0,4.0,66,0.00,,CLR,0.00,VWS V14.01,2013-01-04 02:37:00,
2013-01-03 21:42:00,31.3,21.3,30.12,SW,218,6.0,7.0,66,0.00,,CLR,0.00,VWS V14.01,2013-01-04 02:42:00,
2013-01-03 21:47:00,31.3,21.3,30.12,West,269,1.0,4.0,66,0.00,,CLR,0.00,VWS V14.01,2013-01-04 02:47:00,
2013-01-03 21:52:00,31.1,21.8,30.12,SSW,212,2.0,4.0,68,0.00,,CLR,0.00,VWS V14.01,2013-01-04 02:52:00,
2013-01-03 21:57:00,31.0,21.7,30.12,WNW,284,1.0,5.0,68,0.00,,CLR,0.00,VWS V14.01,2013-01-04 02:57:00,
2013-01-03 22:02:00,31.0,21.7,30.12,WSW,255,1.0,2.0,68,0.00,,OVC050,0.00,VWS V14.01,2013-01-04 03:02:00,
2013-01-03 22:07:00,31.5,22.2,30.12,WNW,285,2.0,5.0,68,0.00,,OVC050,0.00,VWS V14.01,2013-01-04 03:07:00,
2013-01-03 22:12:00,32.0,22.3,30.12,WNW,282,2.0,5.0,67,0.00,,OVC050,0.00,VWS V14.01,2013-01-04 03:12:00,
2013-01-03 22:17:00,32.2,22.1,30.12,WNW,284,2.0,4.0,66,0.00,,OVC050,0.00,VWS V14.01,2013-01-04 03:17:00,
2013-01-03 22:22:00,32.1,22.4,30.12,WNW,284,2.0,4.0,67,0.00,,OVC050,0.00,VWS V14.01,2013-01-04 03:22:00,
2013-01-03 22:27:00,32.1,22.0,30.12,WNW,293,4.0,8.0,66,0.00,,OVC050,0.00,VWS V14.01,2013-01-04 03:27:00,
2013-01-03 22:32:00,32.3,22.2,30.13,West,275,3.0,8.0,66,0.00,,OVC050,0.00,VWS V14.01,2013-01-04 03:32:00,
2013-01-03 22:37:00,32.3,22.2,30.12,West,267,2.0,4.0,66,0.00,,OVC050,0.00,VWS V14.01,2013-01-04 03:37:00,
2013-01-03 22:42:00,32.1,22.0,30.12,WNW,283,1.0,3.0,66,0.00,,OVC050,0.00,VWS V14.01,2013-01-04 03:42:00,
2013-01-03 22:47:00,31.9,22.2,30.12,WNW,284,5.0,5.0,67,0.00,,OVC050,0.00,VWS V14.01,2013-01-04 03:47:00,
2013-01-03 22:52:00,32.1,22.0,30.12,WNW,287,5.0,7.0,66,0.00,,OVC050,0.00,VWS V14.01,2013-01-04 03:52:00,
2013-01-03 22:57:00,32.3,22.2,30.12,WSW,255,1.0,5.0,66,0.00,,OVC050,0.00,VWS V14.01,2013-01-04 03:57:00,
2013-01-03 23:02:00,32.2,22.1,30.12,WNW,285,5.0,7.0,66,0.00,,OVC050,0.00,VWS V14.01,2013-01-04 04:02:00,
2013-01-03 23:07:00,32.1,22.4,30.12,West,277,2.0,7.0,67,0.00,,OVC050,0.00,VWS V14.01,2013-01-04 04:07:00,
2013-01-03 23:12:00,32.0,22.3,30.12,WNW,293,2.0,8.0,67,0.00,,OVC050,0.00,VWS V14.01,2013-01-04 04:12:00,
2013-01-03 23:17:00,31.8,22.5,30.12,WNW,301,0.0,6.0,68,0.00,,OVC050,0.00,VWS V14.01,2013-01-04 04:17:00,
2013-01-03 23:22:00,31.7,22.4,30.12,WNW,282,1.0,6.0,68,0.00,,OVC050,0.00,VWS V14.01,2013-01-04 04:22:00,
2013-01-03 23:27:00,31.6,22.3,30.12,WNW,287,3.0,7.0,68,0.00,,OVC050,0.00,VWS V14.01,2013-01-04 04:27:00,
2013-01-03 23:33:00,31.5,22.5,30.12,West,278,0.0,7.0,69,0.00,,OVC050,0.00,VWS V14.01,2013-01-04 04:33:00,
2013-01-03 23:38:00,31.5,22.5,30.12,WNW,298,0.0,3.0,69,0.00,,OVC050,0.00,VWS V14.01,2013-01-04 04:38:00,
2013-01-03 23:43:00,31.5,22.5,30.12,West,271,0.0,10.0,69,0.00,,OVC050,0.00,VWS V14.01,2013-01-04 04:43:00,
2013-01-03 23:48:00,31.4,22.8,30.12,NNW,340,1.0,3.0,70,0.00,,OVC050,0.00,VWS V14.01,2013-01-04 04:48:00,
2013-01-03 23:53:00,31.4,22.8,30.12,WSW,249,1.0,3.0,70,0.00,,OVC050,0.00,VWS V14.01,2013-01-04 04:53:00,
2013-01-03 23:58:00,31.4,22.8,30.12,West,263,0.0,2.0,70,0.00,,OVC050,0.00,VWS V14.01,2013-01-04 04:58:00,